Time,TemperatureF,DewpointF,PressureIn,WindDirection,WindDirectionDegrees,WindSpeedMPH,WindSpeedGustMPH,Humidity,HourlyPrecipIn,Conditions,Clouds,dailyrainin,SoftwareType,DateUTC
2013-05-28 00:00:00,53.9,53.1,29.95,North,360,0.0,0.0,97,0.00,,,0.00,Wunderground v.1.13,2013-05-28 04:00:00,
2013-05-28 00:01:00,53.9,53.1,29.95,North,360,0.0,0.0,97,0.00,,,0.00,Wunderground v.1.13,2013-05-28 04:01:00,
2013-05-28 00:02:00,53.9,53.1,29.95,North,32767,0.0,0.0,97,0.00,,,0.00,Wunderground v.1.13,2013-05-28 04:02:00,
2013-05-28 00:03:00,53.9,53.1,29.95,North,360,0.0,0.0,97,0.00,,,0.00,Wunderground v.1.13,2013-05-28 04:03:00,
2013-05-28 00:04:00,53.9,53.1,29.95,North,360,0.0,0.0,97,0.00,,,0.00,Wunderground v.1.13,2013-05-28 04:04:00,
2013-05-28 00:09:00,54.0,53.2,29.95,North,360,0.0,0.0,97,0.00,,,0.00,Wunderground v.1.13,2013-05-28 04:09:00,
2013-05-28 00:15:00,54.0,53.2,29.95,North,32767,0.0,0.0,97,0.00,,,0.00,Wunderground v.1.13,2013-05-28 04:15:00,
2013-05-28 00:21:00,54.1,53.3,29.95,North,32767,0.0,0.0,97,0.00,,,0.00,Wunderground v.1.13,2013-05-28 04:21:00,
2013-05-28 00:26:00,54.1,53.3,29.95,North,32767,0.0,0.0,97,0.00,,,0.00,Wunderground v.1.13,2013-05-28 04:26:00,
2013-05-28 00:32:00,54.1,53.3,29.95,North,360,0.0,0.0,97,0.00,,,0.00,Wunderground v.1.13,2013-05-28 04:32:00,
2013-05-28 00:37:00,54.2,53.4,29.95,North,360,0.0,0.0,97,0.00,,,0.00,Wunderground v.1.13,2013-05-28 04:37:00,
2013-05-28 00:43:00,54.2,53.4,29.94,North,360,0.0,0.0,97,0.00,,,0.00,Wunderground v.1.13,2013-05-28 04:43:00,
2013-05-28 00:48:00,54.3,53.5,29.94,North,360,0.0,0.0,97,0.00,,,0.00,Wunderground v.1.13,2013-05-28 04:48:00,
2013-05-28 00:54:00,54.3,53.5,29.94,North,32767,0.0,0.0,97,0.00,,,0.00,Wunderground v.1.13,2013-05-28 04:54:00,
2013-05-28 01:00:00,54.4,53.6,29.93,North,32767,0.0,0.0,97,0.00,,,0.00,Wunderground v.1.13,2013-05-28 05:00:00,
2013-05-28 01:06:00,54.4,53.6,29.93,North,360,0.0,0.0,97,0.00,,,0.00,Wunderground v.1.13,2013-05-28 05:06:00,
2013-05-28 01:12:00,54.5,53.7,29.93,North,32767,0.0,0.0,97,0.00,,,0.00,Wunderground v.1.13,2013-05-28 05:12:00,
2013-05-28 01:18:00,54.5,53.7,29.93,North,32767,0.0,0.0,97,0.00,,,0.00,Wunderground v.1.13,2013-05-28 05:18:00,
2013-05-28 01:24:00,54.6,53.8,29.93,North,360,0.0,0.0,97,0.00,,,0.00,Wunderground v.1.13,2013-05-28 05:24:00,
2013-05-28 01:30:00,54.6,53.8,29.93,North,32767,0.0,0.0,97,0.00,,,0.00,Wunderground v.1.13,2013-05-28 05:30:00,
2013-05-28 01:36:00,54.6,53.8,29.93,North,360,0.0,0.0,97,0.00,,,0.00,Wunderground v.1.13,2013-05-28 05:36:00,
2013-05-28 01:41:00,54.7,53.9,29.93,North,32767,0.0,0.0,97,0.00,,,0.00,Wunderground v.1.13,2013-05-28 05:41:00,
2013-05-28 01:46:00,54.7,53.9,29.93,North,32767,0.0,0.0,97,0.00,,,0.00,Wunderground v.1.13,2013-05-28 05:46:00,
2013-05-28 01:52:00,54.8,54.0,29.93,North,32767,0.0,0.0,97,0.00,,,0.00,Wunderground v.1.13,2013-05-28 05:52:00,
2013-05-28 01:58:00,54.8,54.0,29.91,North,32767,0.0,0.0,97,0.00,,,0.00,Wunderground v.1.13,2013-05-28 05:58:00,
2013-05-28 02:03:00,54.9,54.1,29.91,North,32767,0.0,0.0,97,0.00,,,0.00,Wunderground v.1.13,2013-05-28 06:03:00,
2013-05-28 02:08:00,54.9,54.1,29.91,North,32767,0.0,0.0,97,0.00,,,0.00,Wunderground v.1.13,2013-05-28 06:08:00,
2013-05-28 02:14:00,54.9,54.1,29.92,North,32767,0.0,0.0,97,0.00,,,0.00,Wunderground v.1.13,2013-05-28 06:14:00,
2013-05-28 02:19:00,55.0,54.2,29.92,North,360,0.0,0.0,97,0.00,,,0.00,Wunderground v.1.13,2013-05-28 06:19:00,
2013-05-28 02:24:00,55.0,54.2,29.92,North,360,0.0,0.0,97,0.00,,,0.00,Wunderground v.1.13,2013-05-28 06:24:00,
2013-05-28 02:30:00,55.1,54.3,29.92,North,32767,0.0,0.0,97,0.00,,,0.00,Wunderground v.1.13,2013-05-28 06:30:00,
2013-05-28 02:36:00,55.1,54.3,29.92,North,32767,0.0,0.0,97,0.00,,,0.00,Wunderground v.1.13,2013-05-28 06:36:00,
2013-05-28 02:42:00,55.1,54.3,29.92,North,32767,0.0,0.0,97,0.00,,,0.00,Wunderground v.1.13,2013-05-28 06:42:00,
2013-05-28 02:48:00,55.2,54.4,29.92,North,32767,0.0,0.0,97,0.00,,,0.00,Wunderground v.1.13,2013-05-28 06:48:00,
2013-05-28 02:54:00,55.2,54.4,29.92,North,32767,0.0,0.0,97,0.00,,,0.00,Wunderground v.1.13,2013-05-28 06:54:00,
2013-05-28 02:59:00,55.3,54.5,29.92,North,32767,0.0,0.0,97,0.00,,,0.00,Wunderground v.1.13,2013-05-28 06:59:00,
2013-05-28 03:04:00,55.3,54.5,29.92,North,32767,0.0,0.0,97,0.00,,,0.00,Wunderground v.1.13,2013-05-28 07:04:00,
2013-05-28 03:10:00,55.4,54.6,29.92,North,32767,0.0,0.0,97,0.00,,,0.00,Wunderground v.1.13,2013-05-28 07:10:00,
2013-05-28 03:16:00,55.4,54.6,29.91,North,32767,0.0,0.0,97,0.00,,,0.00,Wunderground v.1.13,2013-05-28 07:16:00,
2013-05-28 03:21:00,55.5,54.7,29.91,North,360,0.0,0.0,97,0.00,,,0.00,Wunderground v.1.13,2013-05-28 07:21:00,
2013-05-28 03:27:00,55.5,54.7,29.91,North,32767,0.0,0.0,97,0.00,,,0.00,Wunderground v.1.13,2013-05-28 07:27:00,
2013-05-28 03:32:00,55.6,54.8,29.90,North,32767,0.0,0.0,97,0.00,,,0.00,Wunderground v.1.13,2013-05-28 07:32:00,
2013-05-28 03:37:00,55.7,54.9,29.90,North,32767,0.0,0.0,97,0.00,,,0.00,Wunderground v.1.13,2013-05-28 07:37:00,
2013-05-28 03:43:00,55.7,54.9,29.90,North,32767,0.0,0.0,97,0.00,,,0.00,Wunderground v.1.13,2013-05-28 07:43:00,
2013-05-28 03:49:00,55.8,55.0,29.90,North,32767,0.0,0.0,97,0.00,,,0.00,Wunderground v.1.13,2013-05-28 07:49:00,
2013-05-28 03:54:00,55.8,55.0,29.90,North,360,0.0,0.0,97,0.00,,,0.00,Wunderground v.1.13,2013-05-28 07:54:00,
2013-05-28 04:00:00,55.9,55.1,29.89,North,360,0.0,0.0,97,0.00,,,0.00,Wunderground v.1.13,2013-05-28 08:00:00,
2013-05-28 04:06:00,56.0,55.2,29.89,North,32767,0.0,0.0,97,0.00,,,0.00,Wunderground v.1.13,2013-05-28 08:06:00,
2013-05-28 04:12:00,56.0,55.2,29.89,North,32767,0.0,0.0,97,0.00,,,0.00,Wunderground v.1.13,2013-05-28 08:12:00,
2013-05-28 04:17:00,56.0,55.4,29.89,North,32767,0.0,0.0,98,0.00,,,0.00,Wunderground v.1.13,2013-05-28 08:17:00,
2013-05-28 04:23:00,56.1,55.5,29.89,North,32767,0.0,0.0,98,0.00,,,0.00,Wunderground v.1.13,2013-05-28 08:23:00,
2013-05-28 04:29:00,56.1,55.3,29.90,North,32767,0.0,0.0,97,0.00,,,0.00,Wunderground v.1.13,2013-05-28 08:29:00,
2013-05-28 04:35:00,56.2,55.6,29.90,North,360,0.0,0.0,98,0.00,,,0.00,Wunderground v.1.13,2013-05-28 08:35:00,
2013-05-28 04:41:00,56.3,55.7,29.90,North,360,0.0,0.0,98,0.00,,,0.00,Wunderground v.1.13,2013-05-28 08:41:00,
2013-05-28 04:46:00,56.3,55.7,29.89,North,32767,0.0,0.0,98,0.00,,,0.00,Wunderground v.1.13,2013-05-28 08:46:00,
2013-05-28 04:52:00,56.4,55.8,29.89,North,360,0.0,0.0,98,0.00,,,0.00,Wunderground v.1.13,2013-05-28 08:52:00,
2013-05-28 04:58:00,56.6,56.0,29.89,North,360,0.0,0.0,98,0.00,,,0.01,Wunderground v.1.13,2013-05-28 08:58:00,
2013-05-28 05:04:00,56.6,56.0,29.89,North,32767,0.0,0.0,98,0.12,,,0.02,Wunderground v.1.13,2013-05-28 09:04:00,
2013-05-28 05:09:00,56.7,56.1,29.89,North,32767,0.0,0.0,98,0.06,,,0.02,Wunderground v.1.13,2013-05-28 09:09:00,
2013-05-28 05:14:00,56.8,56.2,29.88,North,360,0.0,0.0,98,0.04,,,0.03,Wunderground v.1.13,2013-05-28 09:14:00,
2013-05-28 05:20:00,56.9,56.3,29.88,North,360,0.0,0.0,98,0.13,,,0.04,Wunderground v.1.13,2013-05-28 09:20:00,
2013-05-28 05:25:00,57.1,56.5,29.88,North,360,0.0,0.0,98,0.07,,,0.05,Wunderground v.1.13,2013-05-28 09:25:00,
2013-05-28 05:31:00,57.3,56.7,29.88,North,32767,0.0,0.0,98,0.07,,,0.05,Wunderground v.1.13,2013-05-28 09:31:00,
2013-05-28 05:37:00,57.3,56.7,29.88,North,32767,0.0,0.0,98,0.05,,,0.05,Wunderground v.1.13,2013-05-28 09:37:00,
2013-05-28 05:42:00,57.4,56.8,29.88,North,360,0.0,0.0,98,0.60,,,0.08,Wunderground v.1.13,2013-05-28 09:42:00,
2013-05-28 05:48:00,57.4,56.8,29.88,North,32767,0.0,0.0,98,0.29,,,0.11,Wunderground v.1.13,2013-05-28 09:48:00,
2013-05-28 05:54:00,57.6,57.0,29.88,North,32767,0.0,0.0,98,0.08,,,0.11,Wunderground v.1.13,2013-05-28 09:54:00,
2013-05-28 05:59:00,57.6,57.0,29.90,North,360,0.0,0.0,98,0.06,,,0.12,Wunderground v.1.13,2013-05-28 09:59:00,
2013-05-28 06:05:00,57.7,57.1,29.90,North,360,0.0,0.0,98,1.13,,,0.15,Wunderground v.1.13,2013-05-28 10:05:00,
2013-05-28 06:10:00,57.7,57.1,29.90,North,32767,0.0,0.0,98,0.61,,,0.23,Wunderground v.1.13,2013-05-28 10:10:00,
2013-05-28 06:15:00,57.8,57.2,29.88,North,32767,0.0,0.0,98,0.42,,,0.28,Wunderground v.1.13,2013-05-28 10:15:00,
2013-05-28 06:21:00,57.8,57.2,29.88,North,360,0.0,0.0,98,1.03,,,0.32,Wunderground v.1.13,2013-05-28 10:21:00,
2013-05-28 06:26:00,57.9,57.3,29.88,North,360,0.0,0.0,98,0.77,,,0.39,Wunderground v.1.13,2013-05-28 10:26:00,
2013-05-28 06:32:00,57.9,57.6,29.90,North,32767,0.0,0.0,99,0.50,,,0.46,Wunderground v.1.13,2013-05-28 10:32:00,
2013-05-28 06:37:00,57.9,57.6,29.90,North,32767,0.0,0.0,99,0.18,,,0.48,Wunderground v.1.13,2013-05-28 10:37:00,
2013-05-28 06:43:00,58.0,57.7,29.89,North,32767,0.0,0.0,99,0.08,,,0.48,Wunderground v.1.13,2013-05-28 10:43:00,
2013-05-28 06:49:00,58.1,57.8,29.89,North,360,0.0,0.0,99,0.04,,,0.48,Wunderground v.1.13,2013-05-28 10:49:00,
2013-05-28 06:55:00,58.2,57.9,29.89,North,360,0.0,0.0,99,0.00,,,0.48,Wunderground v.1.13,2013-05-28 10:55:00,
2013-05-28 07:00:00,58.4,58.1,29.88,North,32767,0.0,0.0,99,0.00,,,0.48,Wunderground v.1.13,2013-05-28 11:00:00,
2013-05-28 07:06:00,58.5,58.2,29.88,North,32767,0.0,0.0,99,0.00,,,0.48,Wunderground v.1.13,2013-05-28 11:06:00,
2013-05-28 07:12:00,58.7,58.4,29.89,North,32767,0.0,0.0,99,0.00,,,0.48,Wunderground v.1.13,2013-05-28 11:12:00,
2013-05-28 07:17:00,59.0,58.7,29.89,North,32767,0.0,0.0,99,0.00,,,0.48,Wunderground v.1.13,2013-05-28 11:17:00,
2013-05-28 07:23:00,59.0,58.7,29.89,North,32767,0.0,0.0,99,0.00,,,0.48,Wunderground v.1.13,2013-05-28 11:23:00,
2013-05-28 07:29:00,59.0,58.7,29.88,North,360,0.0,0.0,99,0.00,,,0.48,Wunderground v.1.13,2013-05-28 11:29:00,
2013-05-28 07:34:00,59.0,58.7,29.88,North,32767,0.0,0.0,99,0.00,,,0.48,Wunderground v.1.13,2013-05-28 11:34:00,
2013-05-28 07:40:00,59.0,58.7,29.88,North,360,0.0,0.0,99,0.00,,,0.48,Wunderground v.1.13,2013-05-28 11:40:00,
2013-05-28 07:46:00,59.3,59.0,29.88,North,360,0.0,0.0,99,0.00,,,0.48,Wunderground v.1.13,2013-05-28 11:46:00,
2013-05-28 07:51:00,59.4,59.1,29.88,North,32767,0.0,0.0,99,0.00,,,0.48,Wunderground v.1.13,2013-05-28 11:51:00,
2013-05-28 07:56:00,59.5,59.2,29.88,North,32767,0.0,0.0,99,0.00,,,0.48,Wunderground v.1.13,2013-05-28 11:56:00,
2013-05-28 08:02:00,59.6,59.3,29.88,North,32767,0.0,0.0,99,0.00,,,0.48,Wunderground v.1.13,2013-05-28 12:02:00,
2013-05-28 08:08:00,59.9,59.6,29.88,North,360,0.0,0.0,99,0.00,,,0.48,Wunderground v.1.13,2013-05-28 12:08:00,
2013-05-28 08:14:00,60.1,59.8,29.87,North,32767,0.0,0.0,99,0.00,,,0.48,Wunderground v.1.13,2013-05-28 12:14:00,
2013-05-28 08:20:00,60.3,60.0,29.87,North,32767,0.0,0.0,99,0.00,,,0.48,Wunderground v.1.13,2013-05-28 12:20:00,
2013-05-28 08:25:00,60.4,60.1,29.87,North,32767,0.0,0.0,99,0.00,,,0.48,Wunderground v.1.13,2013-05-28 12:25:00,
2013-05-28 08:30:00,60.5,60.2,29.88,North,32767,0.0,0.0,99,0.00,,,0.48,Wunderground v.1.13,2013-05-28 12:30:00,
2013-05-28 08:36:00,60.7,60.4,29.88,North,360,0.0,0.0,99,0.00,,,0.48,Wunderground v.1.13,2013-05-28 12:36:00,
2013-05-28 08:41:00,60.8,60.5,29.88,North,360,0.0,0.0,99,0.00,,,0.48,Wunderground v.1.13,2013-05-28 12:41:00,
2013-05-28 08:46:00,61.0,60.7,29.87,North,360,0.0,0.0,99,0.00,,,0.48,Wunderground v.1.13,2013-05-28 12:46:00,
2013-05-28 08:52:00,61.3,61.0,29.87,North,32767,0.0,0.0,99,0.00,,,0.48,Wunderground v.1.13,2013-05-28 12:52:00,
2013-05-28 08:58:00,61.4,61.1,29.86,North,32767,0.0,0.0,99,0.00,,,0.48,Wunderground v.1.13,2013-05-28 12:58:00,
2013-05-28 09:03:00,61.6,61.3,29.86,North,360,0.0,0.0,99,0.00,,,0.48,Wunderground v.1.13,2013-05-28 13:03:00,
2013-05-28 09:09:00,61.7,61.4,29.86,North,32767,0.0,0.0,99,0.00,,,0.48,Wunderground v.1.13,2013-05-28 13:09:00,
2013-05-28 09:14:00,61.8,61.5,29.86,North,32767,0.0,0.0,99,0.00,,,0.48,Wunderground v.1.13,2013-05-28 13:14:00,
2013-05-28 09:20:00,62.2,61.9,29.86,North,32767,0.0,0.0,99,0.00,,,0.48,Wunderground v.1.13,2013-05-28 13:20:00,
2013-05-28 09:25:00,62.7,62.4,29.86,North,32767,0.0,0.0,99,0.00,,,0.48,Wunderground v.1.13,2013-05-28 13:25:00,
2013-05-28 09:31:00,63.2,63.2,29.85,North,360,0.0,0.0,100,0.00,,,0.48,Wunderground v.1.13,2013-05-28 13:31:00,
2013-05-28 09:36:00,63.5,63.2,29.85,North,360,0.0,0.0,99,0.00,,,0.48,Wunderground v.1.13,2013-05-28 13:36:00,
2013-05-28 09:42:00,63.7,63.7,29.84,North,360,0.0,0.0,100,0.00,,,0.48,Wunderground v.1.13,2013-05-28 13:42:00,
2013-05-28 09:47:00,64.0,64.0,29.84,North,360,0.0,0.0,100,0.00,,,0.48,Wunderground v.1.13,2013-05-28 13:47:00,
2013-05-28 09:53:00,64.5,64.5,29.84,North,360,0.0,0.0,100,0.00,,,0.48,Wunderground v.1.13,2013-05-28 13:53:00,
2013-05-28 09:59:00,65.0,65.0,29.84,North,360,0.0,0.0,100,0.00,,,0.48,Wunderground v.1.13,2013-05-28 13:59:00,
2013-05-28 10:04:00,65.4,65.4,29.84,North,360,0.0,0.0,100,0.00,,,0.48,Wunderground v.1.13,2013-05-28 14:04:00,
2013-05-28 10:10:00,65.8,65.8,29.84,North,32767,0.0,0.0,100,0.00,,,0.48,Wunderground v.1.13,2013-05-28 14:10:00,
2013-05-28 10:15:00,66.0,65.7,29.84,North,32767,0.0,0.0,99,0.00,,,0.48,Wunderground v.1.13,2013-05-28 14:15:00,
2013-05-28 10:21:00,66.3,66.0,29.84,North,32767,0.0,0.0,99,0.00,,,0.48,Wunderground v.1.13,2013-05-28 14:21:00,
2013-05-28 10:26:00,66.6,66.3,29.84,North,32767,0.0,0.0,99,0.00,,,0.48,Wunderground v.1.13,2013-05-28 14:26:00,
2013-05-28 10:31:00,66.7,66.4,29.84,North,32767,0.0,0.0,99,0.00,,,0.48,Wunderground v.1.13,2013-05-28 14:31:00,
2013-05-28 10:37:00,66.9,66.6,29.84,North,32767,0.0,0.0,99,0.00,,,0.48,Wunderground v.1.13,2013-05-28 14:37:00,
2013-05-28 10:43:00,67.2,66.6,29.83,North,360,0.0,0.0,98,0.00,,,0.48,Wunderground v.1.13,2013-05-28 14:43:00,
2013-05-28 10:49:00,67.5,66.9,29.83,North,360,0.0,0.0,98,0.00,,,0.48,Wunderground v.1.13,2013-05-28 14:49:00,
2013-05-28 10:54:00,67.7,66.8,29.83,North,360,0.0,0.0,97,0.00,,,0.48,Wunderground v.1.13,2013-05-28 14:54:00,
2013-05-28 10:59:00,68.0,66.8,29.83,North,360,0.0,0.0,96,0.00,,,0.48,Wunderground v.1.13,2013-05-28 14:59:00,
2013-05-28 11:05:00,68.3,67.1,29.83,North,32767,0.0,0.0,96,0.00,,,0.48,Wunderground v.1.13,2013-05-28 15:05:00,
2013-05-28 11:10:00,68.5,66.7,29.83,North,32767,0.0,0.0,94,0.00,,,0.48,Wunderground v.1.13,2013-05-28 15:10:00,
2013-05-28 11:16:00,68.7,66.9,29.82,North,32767,0.0,0.0,94,0.00,,,0.48,Wunderground v.1.13,2013-05-28 15:16:00,
2013-05-28 11:21:00,68.8,66.7,29.82,North,32767,0.0,0.0,93,0.00,,,0.48,Wunderground v.1.13,2013-05-28 15:21:00,
2013-05-28 11:27:00,69.4,67.0,29.82,North,360,0.0,0.0,92,0.00,,,0.48,Wunderground v.1.13,2013-05-28 15:27:00,
2013-05-28 11:32:00,70.6,67.5,29.82,North,360,0.0,0.0,90,0.00,,,0.48,Wunderground v.1.13,2013-05-28 15:32:00,
2013-05-28 11:38:00,71.4,68.0,29.82,North,32767,0.0,0.0,89,0.00,,,0.48,Wunderground v.1.13,2013-05-28 15:38:00,
2013-05-28 11:43:00,71.5,67.4,29.81,North,32767,0.0,0.0,87,0.00,,,0.48,Wunderground v.1.13,2013-05-28 15:43:00,
2013-05-28 11:48:00,71.6,67.5,29.81,North,32767,0.0,0.0,87,0.00,,,0.48,Wunderground v.1.13,2013-05-28 15:48:00,
2013-05-28 11:54:00,72.1,67.7,29.81,North,360,0.0,0.0,86,0.00,,,0.48,Wunderground v.1.13,2013-05-28 15:54:00,
2013-05-28 11:59:00,72.8,68.0,29.80,North,360,0.0,0.0,85,0.00,,,0.48,Wunderground v.1.13,2013-05-28 15:59:00,
2013-05-28 12:05:00,72.9,67.8,29.80,North,360,0.0,0.0,84,0.00,,,0.48,Wunderground v.1.13,2013-05-28 16:05:00,
2013-05-28 12:10:00,73.0,67.9,29.80,North,360,0.0,0.0,84,0.00,,,0.48,Wunderground v.1.13,2013-05-28 16:10:00,
2013-05-28 12:16:00,73.2,68.1,29.80,North,32767,0.0,0.0,84,0.00,,,0.48,Wunderground v.1.13,2013-05-28 16:16:00,
2013-05-28 12:21:00,73.0,67.9,29.80,North,32767,0.0,0.0,84,0.00,,,0.48,Wunderground v.1.13,2013-05-28 16:21:00,
2013-05-28 12:26:00,72.3,67.5,29.80,North,32767,0.0,0.0,85,0.00,,,0.48,Wunderground v.1.13,2013-05-28 16:26:00,
2013-05-28 12:32:00,71.4,67.3,29.82,North,32767,0.0,0.0,87,0.00,,,0.48,Wunderground v.1.13,2013-05-28 16:32:00,
2013-05-28 12:38:00,71.3,67.6,29.82,North,32767,0.0,0.0,88,0.00,,,0.48,Wunderground v.1.13,2013-05-28 16:38:00,
2013-05-28 12:44:00,71.5,67.4,29.80,North,32767,0.0,0.0,87,0.00,,,0.48,Wunderground v.1.13,2013-05-28 16:44:00,
2013-05-28 12:49:00,72.2,68.1,29.80,North,32767,0.0,0.0,87,0.00,,,0.48,Wunderground v.1.13,2013-05-28 16:49:00,
2013-05-28 12:55:00,73.2,68.4,29.80,North,32767,0.0,0.0,85,0.00,,,0.48,Wunderground v.1.13,2013-05-28 16:55:00,
2013-05-28 13:00:00,74.0,68.9,29.81,North,32767,0.0,0.0,84,0.00,,,0.48,Wunderground v.1.13,2013-05-28 17:00:00,
2013-05-28 13:06:00,75.1,68.9,29.81,North,32767,0.0,0.0,81,0.00,,,0.48,Wunderground v.1.13,2013-05-28 17:06:00,
2013-05-28 13:11:00,75.1,68.9,29.81,North,360,0.0,0.0,81,0.00,,,0.48,Wunderground v.1.13,2013-05-28 17:11:00,
2013-05-28 13:17:00,76.0,68.6,29.80,North,360,0.0,0.0,78,0.00,,,0.48,Wunderground v.1.13,2013-05-28 17:17:00,
2013-05-28 13:22:00,76.1,68.4,29.80,North,32767,0.0,0.0,77,0.00,,,0.48,Wunderground v.1.13,2013-05-28 17:22:00,
2013-05-28 13:28:00,75.9,68.5,29.80,North,360,0.0,0.0,78,0.00,,,0.48,Wunderground v.1.13,2013-05-28 17:28:00,
2013-05-28 13:34:00,76.0,68.3,29.80,North,32767,0.0,0.0,77,0.00,,,0.48,Wunderground v.1.13,2013-05-28 17:34:00,
2013-05-28 13:40:00,76.0,68.3,29.80,North,360,0.0,0.0,77,0.00,,,0.48,Wunderground v.1.13,2013-05-28 17:40:00,
2013-05-28 13:46:00,76.1,68.4,29.81,North,360,0.0,0.0,77,0.00,,,0.48,Wunderground v.1.13,2013-05-28 17:46:00,
2013-05-28 13:51:00,75.8,68.1,29.81,North,360,0.0,0.0,77,0.00,,,0.48,Wunderground v.1.13,2013-05-28 17:51:00,
2013-05-28 13:56:00,75.2,67.9,29.81,North,360,0.0,0.0,78,0.00,,,0.48,Wunderground v.1.13,2013-05-28 17:56:00,
2013-05-28 14:03:00,75.0,67.7,29.82,North,32767,0.0,0.0,78,0.00,,,0.48,Wunderground v.1.13,2013-05-28 18:03:00,
2013-05-28 14:08:00,74.8,67.8,29.82,North,32767,0.0,0.0,79,0.00,,,0.48,Wunderground v.1.13,2013-05-28 18:08:00,
2013-05-28 14:13:00,75.1,68.1,29.81,North,32767,0.0,0.0,79,0.00,,,0.48,Wunderground v.1.13,2013-05-28 18:13:00,
2013-05-28 14:19:00,75.7,68.7,29.81,North,32767,0.0,0.0,79,0.00,,,0.48,Wunderground v.1.13,2013-05-28 18:19:00,
2013-05-28 14:24:00,76.1,68.7,29.81,North,360,0.0,0.0,78,0.00,,,0.48,Wunderground v.1.13,2013-05-28 18:24:00,
2013-05-28 14:30:00,76.2,68.5,29.81,North,32767,0.0,0.0,77,0.00,,,0.48,Wunderground v.1.13,2013-05-28 18:30:00,
2013-05-28 14:35:00,75.9,67.8,29.81,North,32767,0.0,0.0,76,0.00,,,0.48,Wunderground v.1.13,2013-05-28 18:35:00,
2013-05-28 14:40:00,75.7,68.0,29.81,North,32767,0.0,0.0,77,0.00,,,0.48,Wunderground v.1.13,2013-05-28 18:40:00,
2013-05-28 14:46:00,75.9,68.5,29.82,North,360,0.0,0.0,78,0.00,,,0.48,Wunderground v.1.13,2013-05-28 18:46:00,
2013-05-28 14:52:00,76.0,68.6,29.82,North,32767,0.0,0.0,78,0.00,,,0.48,Wunderground v.1.13,2013-05-28 18:52:00,
2013-05-28 14:57:00,75.9,68.2,29.81,North,32767,0.0,0.0,77,0.00,,,0.48,Wunderground v.1.13,2013-05-28 18:57:00,
2013-05-28 15:02:00,75.5,68.2,29.81,North,32767,0.0,0.0,78,0.00,,,0.48,Wunderground v.1.13,2013-05-28 19:02:00,
2013-05-28 15:08:00,75.4,68.4,29.81,North,32767,0.0,0.0,79,0.00,,,0.48,Wunderground v.1.13,2013-05-28 19:08:00,
2013-05-28 15:13:00,75.6,68.6,29.81,North,32767,0.0,0.0,79,0.00,,,0.48,Wunderground v.1.13,2013-05-28 19:13:00,
2013-05-28 15:19:00,76.2,68.8,29.81,North,32767,0.0,0.0,78,0.00,,,0.48,Wunderground v.1.13,2013-05-28 19:19:00,
2013-05-28 15:24:00,76.5,69.1,29.81,North,32767,0.0,0.0,78,0.00,,,0.48,Wunderground v.1.13,2013-05-28 19:24:00,
2013-05-28 15:29:00,76.5,68.7,29.80,North,360,0.0,0.0,77,0.00,,,0.48,Wunderground v.1.13,2013-05-28 19:29:00,
2013-05-28 15:35:00,76.2,68.8,29.80,North,360,0.0,0.0,78,0.00,,,0.48,Wunderground v.1.13,2013-05-28 19:35:00,
2013-05-28 15:40:00,76.0,68.6,29.80,North,32767,0.0,0.0,78,0.00,,,0.48,Wunderground v.1.13,2013-05-28 19:40:00,
2013-05-28 15:45:00,75.7,68.7,29.80,North,360,0.0,0.0,79,0.00,,,0.48,Wunderground v.1.13,2013-05-28 19:45:00,
2013-05-28 15:51:00,75.4,68.8,29.80,North,32767,0.0,0.0,80,0.00,,,0.48,Wunderground v.1.13,2013-05-28 19:51:00,
2013-05-28 15:57:00,75.4,69.2,29.80,North,32767,0.0,0.0,81,0.00,,,0.48,Wunderground v.1.13,2013-05-28 19:57:00,
2013-05-28 16:02:00,75.3,68.7,29.80,North,32767,0.0,0.0,80,0.00,,,0.48,Wunderground v.1.13,2013-05-28 20:02:00,
2013-05-28 16:07:00,75.1,68.9,29.80,North,32767,0.0,0.0,81,0.00,,,0.49,Wunderground v.1.13,2013-05-28 20:07:00,
2013-05-28 16:13:00,74.2,69.1,29.79,North,32767,0.0,0.0,84,0.00,,,0.49,Wunderground v.1.13,2013-05-28 20:13:00,
2013-05-28 16:18:00,73.5,69.1,29.79,North,32767,0.0,0.0,86,0.00,,,0.49,Wunderground v.1.13,2013-05-28 20:18:00,
2013-05-28 16:23:00,73.3,69.2,29.79,North,360,0.0,0.0,87,0.00,,,0.49,Wunderground v.1.13,2013-05-28 20:23:00,
2013-05-28 16:29:00,73.3,69.2,29.81,North,32767,0.0,0.0,87,0.00,,,0.49,Wunderground v.1.13,2013-05-28 20:29:00,
2013-05-28 16:34:00,73.3,69.2,29.81,North,32767,0.0,0.0,87,0.00,,,0.49,Wunderground v.1.13,2013-05-28 20:34:00,
2013-05-28 16:39:00,73.4,69.3,29.81,North,360,0.0,0.0,87,0.00,,,0.49,Wunderground v.1.13,2013-05-28 20:39:00,
2013-05-28 16:46:00,73.6,69.2,29.81,North,360,0.0,0.0,86,0.00,,,0.49,Wunderground v.1.13,2013-05-28 20:46:00,
2013-05-28 16:52:00,74.0,69.5,29.81,North,360,0.0,0.0,86,0.00,,,0.49,Wunderground v.1.13,2013-05-28 20:52:00,
2013-05-28 16:58:00,74.4,69.6,29.80,North,32767,0.0,0.0,85,0.00,,,0.49,Wunderground v.1.13,2013-05-28 20:58:00,
2013-05-28 17:04:00,75.0,70.2,29.80,North,32767,0.0,0.0,85,0.00,,,0.49,Wunderground v.1.13,2013-05-28 21:04:00,
2013-05-28 17:09:00,75.5,70.3,29.80,North,32767,0.0,0.0,84,0.00,,,0.49,Wunderground v.1.13,2013-05-28 21:09:00,
2013-05-28 17:15:00,75.7,70.2,29.79,North,360,0.0,0.0,83,0.00,,,0.49,Wunderground v.1.13,2013-05-28 21:15:00,
2013-05-28 17:20:00,75.8,69.9,29.79,North,32767,0.0,0.0,82,0.00,,,0.49,Wunderground v.1.13,2013-05-28 21:20:00,
2013-05-28 17:26:00,75.7,70.2,29.79,North,32767,0.0,0.0,83,0.00,,,0.49,Wunderground v.1.13,2013-05-28 21:26:00,
2013-05-28 17:31:00,75.9,70.4,29.78,North,32767,0.0,0.0,83,0.00,,,0.49,Wunderground v.1.13,2013-05-28 21:31:00,
2013-05-28 17:37:00,76.0,70.5,29.78,North,360,0.0,0.0,83,0.00,,,0.49,Wunderground v.1.13,2013-05-28 21:37:00,
2013-05-28 17:42:00,76.0,70.5,29.79,North,360,0.0,0.0,83,0.00,,,0.49,Wunderground v.1.13,2013-05-28 21:42:00,
2013-05-28 17:48:00,76.0,70.5,29.79,North,360,0.0,0.0,83,0.00,,,0.49,Wunderground v.1.13,2013-05-28 21:48:00,
2013-05-28 17:54:00,76.5,70.9,29.79,North,32767,0.0,0.0,83,0.00,,,0.49,Wunderground v.1.13,2013-05-28 21:54:00,
2013-05-28 17:59:00,77.0,71.1,29.77,North,360,0.0,0.0,82,0.00,,,0.49,Wunderground v.1.13,2013-05-28 21:59:00,
2013-05-28 18:05:00,77.5,71.2,29.77,North,360,0.0,0.0,81,0.00,,,0.49,Wunderground v.1.13,2013-05-28 22:05:00,
2013-05-28 18:11:00,77.8,70.8,29.77,North,32767,0.0,0.0,79,0.00,,,0.49,Wunderground v.1.13,2013-05-28 22:11:00,
2013-05-28 18:17:00,78.0,71.0,29.76,North,32767,0.0,0.0,79,0.00,,,0.49,Wunderground v.1.13,2013-05-28 22:17:00,
2013-05-28 18:23:00,78.1,71.1,29.76,North,32767,0.0,0.0,79,0.00,,,0.49,Wunderground v.1.13,2013-05-28 22:23:00,
2013-05-28 18:29:00,78.1,71.1,29.77,North,360,0.0,0.0,79,0.00,,,0.49,Wunderground v.1.13,2013-05-28 22:29:00,
2013-05-28 18:35:00,78.1,70.7,29.77,North,32767,0.0,0.0,78,0.00,,,0.49,Wunderground v.1.13,2013-05-28 22:35:00,
2013-05-28 18:41:00,78.1,70.7,29.77,North,32767,0.0,0.0,78,0.00,,,0.49,Wunderground v.1.13,2013-05-28 22:41:00,
2013-05-28 18:47:00,78.0,70.2,29.77,North,32767,0.0,0.0,77,0.00,,,0.49,Wunderground v.1.13,2013-05-28 22:47:00,
2013-05-28 18:53:00,78.3,70.5,29.77,North,32767,0.0,0.0,77,0.00,,,0.49,Wunderground v.1.13,2013-05-28 22:53:00,
2013-05-28 18:59:00,78.3,70.5,29.77,North,360,0.0,0.0,77,0.00,,,0.49,Wunderground v.1.13,2013-05-28 22:59:00,
2013-05-28 19:05:00,78.1,70.3,29.77,North,32767,0.0,0.0,77,0.00,,,0.49,Wunderground v.1.13,2013-05-28 23:05:00,
2013-05-28 19:11:00,78.1,69.9,29.77,North,32767,0.0,0.0,76,0.00,,,0.49,Wunderground v.1.13,2013-05-28 23:11:00,
2013-05-28 19:17:00,78.0,69.8,29.77,North,360,0.0,0.0,76,0.00,,,0.49,Wunderground v.1.13,2013-05-28 23:17:00,
2013-05-28 19:23:00,78.0,69.8,29.77,North,360,0.0,0.0,76,0.00,,,0.49,Wunderground v.1.13,2013-05-28 23:23:00,
2013-05-28 19:28:00,78.1,69.5,29.77,North,32767,0.0,0.0,75,0.00,,,0.49,Wunderground v.1.13,2013-05-28 23:28:00,
2013-05-28 19:34:00,78.0,69.0,29.77,North,32767,0.0,0.0,74,0.00,,,0.49,Wunderground v.1.13,2013-05-28 23:34:00,
2013-05-28 19:40:00,77.7,68.7,29.77,North,32767,0.0,0.0,74,0.00,,,0.49,Wunderground v.1.13,2013-05-28 23:40:00,
2013-05-28 19:46:00,77.5,68.6,29.77,North,32767,0.0,0.0,74,0.00,,,0.49,Wunderground v.1.13,2013-05-28 23:46:00,
2013-05-28 19:51:00,77.4,68.5,29.77,North,32767,0.0,0.0,74,0.00,,,0.49,Wunderground v.1.13,2013-05-28 23:51:00,
2013-05-28 19:57:00,77.2,68.7,29.78,North,32767,0.0,0.0,75,0.00,,,0.49,Wunderground v.1.13,2013-05-28 23:57:00,
2013-05-28 20:02:00,77.1,68.6,29.78,North,360,0.0,0.0,75,0.00,,,0.49,Wunderground v.1.13,2013-05-29 00:02:00,
2013-05-28 20:07:00,77.0,68.5,29.78,North,32767,0.0,0.0,75,0.00,,,0.49,Wunderground v.1.13,2013-05-29 00:07:00,
2013-05-28 20:13:00,76.9,68.8,29.77,North,360,0.0,0.0,76,0.00,,,0.49,Wunderground v.1.13,2013-05-29 00:13:00,
2013-05-28 20:18:00,76.9,68.8,29.77,North,32767,0.0,0.0,76,0.00,,,0.49,Wunderground v.1.13,2013-05-29 00:18:00,
2013-05-28 20:24:00,76.8,69.0,29.77,North,32767,0.0,0.0,77,0.00,,,0.49,Wunderground v.1.13,2013-05-29 00:24:00,
2013-05-28 20:29:00,76.7,68.9,29.77,North,32767,0.0,0.0,77,0.00,,,0.49,Wunderground v.1.13,2013-05-29 00:29:00,
2013-05-28 20:35:00,76.6,68.8,29.77,North,32767,0.0,0.0,77,0.00,,,0.49,Wunderground v.1.13,2013-05-29 00:35:00,
2013-05-28 20:41:00,76.5,69.1,29.77,North,360,0.0,0.0,78,0.00,,,0.49,Wunderground v.1.13,2013-05-29 00:41:00,
2013-05-28 20:46:00,76.3,68.9,29.77,North,32767,0.0,0.0,78,0.00,,,0.49,Wunderground v.1.13,2013-05-29 00:46:00,
2013-05-28 20:52:00,76.3,68.9,29.77,North,32767,0.0,0.0,78,0.00,,,0.49,Wunderground v.1.13,2013-05-29 00:52:00,
2013-05-28 20:57:00,76.2,68.8,29.76,North,32767,0.0,0.0,78,0.00,,,0.49,Wunderground v.1.13,2013-05-29 00:57:00,
2013-05-28 21:02:00,76.2,68.8,29.76,North,32767,0.0,0.0,78,0.00,,,0.49,Wunderground v.1.13,2013-05-29 01:02:00,
2013-05-28 21:08:00,76.1,68.7,29.76,North,360,0.0,0.0,78,0.00,,,0.49,Wunderground v.1.13,2013-05-29 01:08:00,
2013-05-28 21:13:00,76.0,69.0,29.76,North,360,0.0,0.0,79,0.00,,,0.49,Wunderground v.1.13,2013-05-29 01:13:00,
2013-05-28 21:18:00,75.9,68.9,29.76,North,360,0.0,0.0,79,0.00,,,0.49,Wunderground v.1.13,2013-05-29 01:18:00,
2013-05-28 21:24:00,75.8,68.8,29.76,North,32767,0.0,0.0,79,0.00,,,0.49,Wunderground v.1.13,2013-05-29 01:24:00,
2013-05-28 21:29:00,75.8,68.8,29.76,North,360,0.0,0.0,79,0.00,,,0.49,Wunderground v.1.13,2013-05-29 01:29:00,
2013-05-28 21:34:00,75.8,69.2,29.76,North,32767,0.0,0.0,80,0.00,,,0.49,Wunderground v.1.13,2013-05-29 01:34:00,
2013-05-28 21:40:00,75.7,69.1,29.76,North,32767,0.0,0.0,80,0.00,,,0.49,Wunderground v.1.13,2013-05-29 01:40:00,
2013-05-28 21:46:00,75.4,69.2,29.76,North,32767,0.0,0.0,81,0.00,,,0.49,Wunderground v.1.13,2013-05-29 01:46:00,
2013-05-28 21:51:00,75.2,69.3,29.76,North,32767,0.0,0.0,82,0.00,,,0.49,Wunderground v.1.13,2013-05-29 01:51:00,
2013-05-28 21:57:00,75.0,69.5,29.76,North,360,0.0,0.0,83,0.00,,,0.49,Wunderground v.1.13,2013-05-29 01:57:00,
2013-05-28 22:03:00,74.8,69.3,29.76,North,32767,0.0,0.0,83,0.00,,,0.49,Wunderground v.1.13,2013-05-29 02:03:00,
2013-05-28 22:08:00,74.7,69.5,29.76,North,32767,0.0,0.0,84,0.00,,,0.49,Wunderground v.1.13,2013-05-29 02:08:00,
2013-05-28 22:14:00,74.5,69.3,29.77,North,32767,0.0,0.0,84,0.00,,,0.49,Wunderground v.1.13,2013-05-29 02:14:00,
2013-05-28 22:20:00,74.4,69.2,29.77,North,32767,0.0,0.0,84,0.00,,,0.49,Wunderground v.1.13,2013-05-29 02:20:00,
2013-05-28 22:26:00,74.4,69.2,29.77,North,32767,0.0,0.0,84,0.00,,,0.49,Wunderground v.1.13,2013-05-29 02:26:00,
2013-05-28 22:31:00,74.3,69.5,29.76,North,32767,0.0,0.0,85,0.00,,,0.49,Wunderground v.1.13,2013-05-29 02:31:00,
2013-05-28 22:36:00,74.3,69.5,29.76,North,32767,0.0,0.0,85,0.00,,,0.49,Wunderground v.1.13,2013-05-29 02:36:00,
2013-05-28 22:42:00,74.2,69.4,29.76,North,32767,0.0,0.0,85,0.00,,,0.49,Wunderground v.1.13,2013-05-29 02:42:00,
2013-05-28 22:47:00,74.1,69.6,29.76,North,32767,0.0,0.0,86,0.00,,,0.49,Wunderground v.1.13,2013-05-29 02:47:00,
2013-05-28 22:53:00,73.6,69.8,29.76,North,360,0.0,0.0,88,4.50,,,0.55,Wunderground v.1.13,2013-05-29 02:53:00,
2013-05-28 22:59:00,72.0,69.2,29.76,North,32767,0.0,0.0,91,0.69,,,0.70,Wunderground v.1.13,2013-05-29 02:59:00,
2013-05-28 23:05:00,70.8,68.7,29.76,North,32767,0.0,0.0,93,5.65,,,1.04,Wunderground v.1.13,2013-05-29 03:05:00,
2013-05-28 23:11:00,70.3,68.8,29.76,North,360,0.0,0.0,95,3.67,,,1.31,Wunderground v.1.13,2013-05-29 03:11:00,
2013-05-28 23:17:00,70.2,68.7,29.76,North,360,0.0,0.0,95,0.20,,,1.37,Wunderground v.1.13,2013-05-29 03:17:00,
2013-05-28 23:22:00,70.3,69.1,29.76,North,32767,0.0,0.0,96,0.07,,,1.37,Wunderground v.1.13,2013-05-29 03:22:00,
2013-05-28 23:28:00,70.3,69.1,29.77,North,32767,0.0,0.0,96,0.04,,,1.37,Wunderground v.1.13,2013-05-29 03:28:00,
2013-05-28 23:34:00,70.2,69.0,29.77,North,32767,0.0,0.0,96,0.00,,,1.37,Wunderground v.1.13,2013-05-29 03:34:00,
2013-05-28 23:40:00,70.1,69.2,29.77,North,360,0.0,0.0,97,0.57,,,1.40,Wunderground v.1.13,2013-05-29 03:40:00,
2013-05-28 23:45:00,70.1,69.2,29.77,North,360,0.0,0.0,97,0.14,,,1.41,Wunderground v.1.13,2013-05-29 03:45:00,
2013-05-28 23:51:00,70.1,69.2,29.77,North,360,0.0,0.0,97,0.15,,,1.42,Wunderground v.1.13,2013-05-29 03:51:00,
2013-05-28 23:56:00,70.2,69.3,29.77,North,360,0.0,0.0,97,0.11,,,1.43,Wunderground v.1.13,2013-05-29 03:56:00,